STARLINK-1763 (46364 NORAD) Tracking and Keplerian Element Data

This shows tracking and keplerian element data for the satellite.

Feedback or suggestion? Click here.




ElementValue
Catalog46364
NameSTARLINK-1763
Epoch Orbit1393
Epoch Day331.16668981
Epoch Year2020
RAAN18.94
Inclination52.9984
Eccentricity0.0001996
Argument of Perigee22.0793
Mean Anonmoly325.4298
Mean Motion15.62817187
Decay Rate2.845E-05
L11 46364U 20062AR 20331.16668981 .00002845 00000-0 36818-4 0 9996
L22 46364 52.9984 18.9400 0001996 22.0793 325.4298 15.62817187 13937

Live tracking and technical data element details for STARLINK-1763 (NORAD 46364). STARLINK-1763 can be tracked NOW for your location showing map with azimuth and elevation plus other details from your city location.

Track the satellite on the map from your city or location and see movement details for azimuth, elevation, latitude, longitude, range, height, and movement on the map or in text.







IsCatalogInMostPopularTable: catalog: 46364, numindb: 26
Update: records affected: 1



GetName: 46364 STARLINK-1763

Hit Count: updated at: Thu, 26 Nov 2020 23:28:06 GMT